| time (UTC) | temp F | wind direction | speed MPH | gust MPH | rain 1hr in | rain 24hr in | rain mn in | humidity % | barometer mb |
| 20260510160608 | 89 | 239 | 3.0 | 7.0 | 0.00 | 0.00 | 0.00 | 100 | 1009.4 |
| 20260510160108 | 88 | 219 | 1.0 | 7.0 | 0.00 | 0.00 | 0.00 | 100 | 1009.4 |
| 20260510155812 | 87 | 182 | 4.0 | 7.0 | 0.00 | 0.00 | 0.00 | 100 | 1009.4 |
| 20260510155314 | 87 | 220 | 5.0 | 7.0 | 0.00 | 0.00 | 0.00 | 100 | 1009.4 |
| 20260510154551 | 87 | 206 | 3.0 | 6.0 | 0.00 | 0.00 | 0.00 | 100 | 1009.4 |
| 20260510154316 | 87 | 260 | 1.0 | 6.0 | 0.00 | 0.00 | 0.00 | 100 | 1009.4 |
| 20260510153551 | 87 | 239 | 4.0 | 6.0 | 0.00 | 0.00 | 0.00 | 100 | 1009.4 |
| 20260510153050 | 87 | 234 | 3.0 | 5.0 | 0.00 | 0.00 | 0.00 | 100 | 1009.4 |
| 20260510152549 | 87 | 251 | 0.0 | 5.0 | 0.00 | 0.00 | 0.00 | 100 | 1009.4 |
| 20260510152046 | 85 | 170 | 1.0 | 5.0 | 0.00 | 0.00 | 0.00 | 100 | 1009.4 |
| 20260510151759 | 85 | 244 | 0.0 | 5.0 | 0.00 | 0.00 | 0.00 | 100 | 1009.4 |
| 20260510151032 | 84 | 216 | 0.0 | 4.0 | 0.00 | 0.00 | 0.00 | 100 | 1009.4 |
| 20260510150526 | 84 | 247 | 0.0 | 4.0 | 0.00 | 0.00 | 0.00 | 100 | 1009.4 |
| 20260510150025 | 84 | 196 | 0.0 | 3.0 | 0.00 | 0.00 | 0.00 | 100 | 1009.4 |
| 20260510145739 | 84 | 230 | 0.0 | 4.0 | 0.00 | 0.00 | 0.00 | 100 | 1009.4 |
| 20260510145014 | 83 | 296 | 0.0 | 5.0 | 0.00 | 0.00 | 0.00 | 100 | 1009.4 |
| 20260510144510 | 83 | 309 | 3.0 | 5.0 | 0.00 | 0.00 | 0.00 | 100 | 1009.4 |
| 20260510144009 | 82 | 295 | 0.0 | 2.0 | 0.00 | 0.00 | 0.00 | 100 | 1009.4 |
| 20260510143729 | 82 | 343 | 0.0 | 0.0 | 0.00 | 0.00 | 0.00 | 100 | 1009.4 |
| 20260510143004 | 82 | 343 | 0.0 | 0.0 | 0.00 | 0.00 | 0.00 | 100 | 1009.4 |
| 20260510142503 | 81 | 343 | 0.0 | 0.0 | 0.00 | 0.00 | 0.00 | 100 | 1009.4 |
| 20260510141952 | 80 | 343 | 0.0 | 0.0 | 0.00 | 0.00 | 0.00 | 100 | 1009.4 |
| 20260510141452 | 79 | 343 | 0.0 | 0.0 | 0.00 | 0.00 | 0.00 | 100 | 1009.4 |
| 20260510140949 | 77 | 343 | 0.0 | 0.0 | 0.00 | 0.00 | 0.00 | 100 | 1009.4 |
| 20260510140443 | 76 | 343 | 0.0 | 0.0 | 0.00 | 0.00 | 0.00 | 100 | 1009.4 |
| 20260510135942 | 76 | 343 | 0.0 | 0.0 | 0.00 | 0.00 | 0.00 | 100 | 1009.4 |
| 20260510135637 | 75 | 343 | 0.0 | 0.0 | 0.00 | 0.00 | 0.00 | 100 | 1009.4 |
| 20260510134912 | 74 | 343 | 0.0 | 0.0 | 0.00 | 0.00 | 0.00 | 100 | 1009.4 |
| 20260510134407 | 71 | 343 | 0.0 | 0.0 | 0.00 | 0.00 | 0.00 | 100 | 1009.4 |
| 20260510134127 | 70 | 343 | 0.0 | 0.0 | 0.00 | 0.00 | 0.00 | 100 | 1009.4 |
| 20260510133400 | 68 | 343 | 0.0 | 0.0 | 0.00 | 0.00 | 0.00 | 100 | 1009.4 |
| 20260510133053 | 68 | 343 | 0.0 | 0.0 | 0.00 | 0.00 | 0.00 | 100 | 1009.4 |
| 20260510132326 | 67 | 343 | 0.0 | 0.0 | 0.00 | 0.00 | 0.00 | 100 | 1009.4 |
| 20260510131825 | 66 | 343 | 0.0 | 2.0 | 0.00 | 0.00 | 0.00 | 100 | 1009.4 |
| 20260510131517 | 66 | 343 | 0.0 | 6.0 | 0.00 | 0.00 | 0.00 | 100 | 1009.4 |
| 20260510130759 | 66 | 343 | 4.0 | 6.0 | 0.00 | 0.00 | 0.00 | 100 | 1009.4 |
| 20260510130257 | 65 | 358 | 2.0 | 6.0 | 0.00 | 0.00 | 0.00 | 100 | 1009.4 |
| 20260510125756 | 66 | 344 | 0.0 | 6.0 | 0.00 | 0.00 | 0.00 | 100 | 1009.4 |
| 20260510125252 | 65 | 358 | 4.0 | 6.0 | 0.00 | 0.00 | 0.00 | 100 | 1009.4 |
| 20260510124237 | 66 | 77 | 0.0 | 3.0 | 0.00 | 0.00 | 0.00 | 100 | 1009.4 |
| 20260510123712 | 66 | 77 | 0.0 | 6.0 | 0.00 | 0.00 | 0.00 | 100 | 1009.4 |
| 20260510123211 | 67 | 78 | 0.0 | 6.0 | 0.00 | 0.00 | 0.00 | 100 | 1009.4 |
| 20260510122932 | 65 | 92 | 6.0 | 6.0 | 0.00 | 0.00 | 0.00 | 100 | 1009.4 |
| 20260510122439 | 64 | 15 | 0.0 | 7.0 | 0.00 | 0.00 | 0.00 | 100 | 1009.4 |
| 20260510121709 | 65 | 56 | 6.0 | 7.0 | 0.00 | 0.00 | 0.00 | 100 | 1009.4 |
| 20260510121430 | 64 | 22 | 6.0 | 7.0 | 0.00 | 0.00 | 0.00 | 100 | 1009.4 |
| 20260510120708 | 65 | 14 | 4.0 | 6.0 | 0.00 | 0.00 | 0.00 | 100 | 1009.4 |
| 20260510120207 | 65 | 358 | 0.0 | 7.0 | 0.00 | 0.00 | 0.00 | 100 | 1009.4 |
| 20260510115918 | 65 | 316 | 1.0 | 7.0 | 0.00 | 0.00 | 0.00 | 100 | 1009.4 |
| 20260510115153 | 65 | 312 | 6.0 | 7.0 | 0.00 | 0.00 | 0.00 | 100 | 1009.4 |
| 20260510114654 | 64 | 358 | 0.0 | 7.0 | 0.00 | 0.00 | 0.00 | 100 | 1009.4 |
| 20260510114153 | 65 | 317 | 7.0 | 8.0 | 0.00 | 0.00 | 0.00 | 100 | 1009.4 |
| 20260510113913 | 65 | 358 | 2.0 | 8.0 | 0.00 | 0.00 | 0.00 | 100 | 1009.4 |
| 20260510113151 | 64 | 358 | 5.0 | 8.0 | 0.00 | 0.00 | 0.00 | 100 | 1009.4 |
| 20260510112651 | 64 | 320 | 4.0 | 8.0 | 0.00 | 0.00 | 0.00 | 100 | 1009.4 |
| 20260510112150 | 64 | 358 | 3.0 | 12.0 | 0.00 | 0.00 | 0.00 | 100 | 1009.4 |
| 20260510111646 | 63 | 345 | 2.0 | 12.0 | 0.00 | 0.00 | 0.00 | 100 | 1009.4 |
| 20260510111131 | 62 | 344 | 10.0 | 12.0 | 0.00 | 0.00 | 0.00 | 100 | 1009.4 |
| 20260510110628 | 62 | 26 | 0.0 | 0.0 | 0.00 | 0.00 | 0.00 | 100 | 1009.4 |
| 20260510110123 | 62 | 26 | 0.0 | 0.0 | 0.00 | 0.00 | 0.00 | 100 | 1009.4 |
| 20260510105617 | 62 | 26 | 0.0 | 2.0 | 0.00 | 0.00 | 0.00 | 100 | 1009.4 |
| 20260510105347 | 63 | 26 | 0.0 | 2.0 | 0.00 | 0.00 | 0.00 | 100 | 1009.4 |
| 20260510104611 | 62 | 23 | 0.0 | 5.0 | 0.00 | 0.00 | 0.00 | 100 | 1009.4 |
| 20260510104107 | 62 | 23 | 0.0 | 6.0 | 0.00 | 0.00 | 0.00 | 100 | 1009.4 |
| 20260510103541 | 62 | 23 | 0.0 | 6.0 | 0.00 | 0.00 | 0.00 | 100 | 1009.4 |
| 20260510103021 | 62 | 16 | 5.0 | 6.0 | 0.00 | 0.00 | 0.00 | 100 | 1009.4 |
| 20260510102520 | 63 | 351 | 6.0 | 6.0 | 0.00 | 0.00 | 0.00 | 100 | 1009.4 |
| 20260510102019 | 63 | 358 | 0.0 | 5.0 | 0.00 | 0.00 | 0.00 | 100 | 1009.4 |
| 20260510101016 | 64 | 317 | 4.0 | 5.0 | 0.00 | 0.00 | 0.00 | 100 | 1009.4 |
| 20260510100516 | 63 | 312 | 4.0 | 5.0 | 0.00 | 0.00 | 0.00 | 100 | 1009.4 |
| 20260510100015 | 63 | 319 | 4.0 | 5.0 | 0.00 | 0.00 | 0.00 | 100 | 1009.4 |
| 20260510095512 | 63 | 358 | 0.0 | 6.0 | 0.00 | 0.00 | 0.00 | 100 | 1009.4 |
| 20260510094954 | 63 | 358 | 2.0 | 6.0 | 0.00 | 0.00 | 0.00 | 100 | 1009.4 |
| 20260510094448 | 64 | 316 | 4.0 | 6.0 | 0.00 | 0.00 | 0.00 | 100 | 1009.4 |
| 20260510093948 | 63 | 319 | 4.0 | 6.0 | 0.00 | 0.00 | 0.00 | 100 | 1009.4 |
| 20260510092947 | 64 | 350 | 5.0 | 6.0 | 0.00 | 0.00 | 0.00 | 100 | 1009.4 |
| 20260510092446 | 64 | 358 | 3.0 | 6.0 | 0.00 | 0.00 | 0.00 | 100 | 1009.4 |
| 20260510092201 | 64 | 358 | 4.0 | 6.0 | 0.00 | 0.00 | 0.00 | 100 | 1009.4 |
| 20260510091437 | 64 | 358 | 2.0 | 5.0 | 0.00 | 0.00 | 0.00 | 100 | 1009.4 |
| 20260510090935 | 64 | 358 | 2.0 | 6.0 | 0.00 | 0.00 | 0.00 | 100 | 1009.4 |
| 20260510090432 | 64 | 322 | 2.0 | 6.0 | 0.00 | 0.00 | 0.00 | 100 | 1009.4 |
| 20260510085929 | 64 | 302 | 0.0 | 6.0 | 0.00 | 0.00 | 0.00 | 100 | 1009.4 |
| 20260510085429 | 63 | 299 | 0.0 | 4.0 | 0.00 | 0.00 | 0.00 | 100 | 1009.4 |
| 20260510084924 | 63 | 358 | 1.0 | 5.0 | 0.00 | 0.00 | 0.00 | 100 | 1009.4 |
| 20260510084419 | 63 | 331 | 1.0 | 5.0 | 0.00 | 0.00 | 0.00 | 100 | 1009.4 |
| 20260510083919 | 62 | 285 | 0.0 | 0.0 | 0.00 | 0.00 | 0.00 | 100 | 1009.4 |
| 20260510083413 | 62 | 285 | 0.0 | 0.0 | 0.00 | 0.00 | 0.00 | 100 | 1009.4 |
| 20260510082911 | 62 | 285 | 0.0 | 0.0 | 0.00 | 0.00 | 0.00 | 100 | 1009.4 |
| 20260510082621 | 63 | 285 | 0.0 | 0.0 | 0.00 | 0.00 | 0.00 | 100 | 1009.4 |
| 20260510081852 | 63 | 285 | 0.0 | 0.0 | 0.00 | 0.00 | 0.00 | 100 | 1009.4 |
| 20260510081341 | 64 | 285 | 0.0 | 0.0 | 0.00 | 0.00 | 0.00 | 100 | 1009.4 |
| 20260510080830 | 65 | 285 | 0.0 | 0.0 | 0.00 | 0.00 | 0.00 | 100 | 1009.4 |
| 20260510080516 | 65 | 285 | 0.0 | 0.0 | 0.00 | 0.00 | 0.00 | 100 | 1009.4 |
| 20260510080002 | 65 | 285 | 0.0 | 0.0 | 0.00 | 0.00 | 0.00 | 100 | 1009.4 |
| 20260510075238 | 66 | 285 | 0.0 | 0.0 | 0.00 | 0.00 | 0.00 | 100 | 1009.4 |
| 20260510074727 | 67 | 285 | 0.0 | 0.0 | 0.00 | 0.00 | 0.00 | 100 | 1009.4 |
| 20260510074216 | 67 | 285 | 0.0 | 0.0 | 0.00 | 0.00 | 0.00 | 100 | 1009.4 |
| 20260510073709 | 68 | 285 | 0.0 | 0.0 | 0.00 | 0.00 | 0.00 | 100 | 1009.4 |
| 20260510073208 | 69 | 285 | 0.0 | 0.0 | 0.00 | 0.00 | 0.00 | 100 | 1009.4 |
| 20260510072702 | 70 | 285 | 0.0 | 0.0 | 0.00 | 0.00 | 0.00 | 100 | 1009.4 |
| 20260510072201 | 70 | 285 | 0.0 | 2.0 | 0.00 | 0.00 | 0.00 | 100 | 1009.4 |
| 20260510071656 | 71 | 285 | 0.0 | 2.0 | 0.00 | 0.00 | 0.00 | 100 | 1009.4 |
| 20260510071136 | 71 | 285 | 0.0 | 2.0 | 0.00 | 0.00 | 0.00 | 100 | 1009.4 |
| 20260510070854 | 72 | 358 | 0.0 | 5.0 | 0.00 | 0.00 | 0.00 | 100 | 1009.4 |
| 20260510070130 | 73 | 358 | 0.0 | 6.0 | 0.00 | 0.00 | 0.00 | 100 | 1009.4 |
| 20260510065603 | 74 | 358 | 3.0 | 7.0 | 0.00 | 0.00 | 0.00 | 100 | 1009.4 |
| 20260510065057 | 74 | 16 | 4.0 | 8.0 | 0.00 | 0.00 | 0.00 | 100 | 1009.4 |
| 20260510064554 | 75 | 21 | 5.0 | 9.0 | 0.00 | 0.00 | 0.00 | 100 | 1009.4 |
| 20260510064316 | 75 | 35 | 8.0 | 9.0 | 0.00 | 0.00 | 0.00 | 100 | 1009.4 |
| 20260510063551 | 74 | 42 | 9.0 | 9.0 | 0.00 | 0.00 | 0.00 | 100 | 1009.4 |
| 20260510063050 | 73 | 35 | 6.0 | 7.0 | 0.00 | 0.00 | 0.00 | 100 | 1009.4 |
| 20260510062549 | 72 | 53 | 1.0 | 6.0 | 0.00 | 0.00 | 0.00 | 100 | 1009.4 |
| 20260510062049 | 72 | 52 | 0.0 | 5.0 | 0.00 | 0.00 | 0.00 | 100 | 1009.4 |
| 20260510061805 | 72 | 56 | 1.0 | 4.0 | 0.00 | 0.00 | 0.00 | 100 | 1009.4 |
| 20260510061043 | 72 | 9 | 0.0 | 4.0 | 0.00 | 0.00 | 0.00 | 100 | 1009.4 |
| 20260510060530 | 72 | 9 | 2.0 | 4.0 | 0.00 | 0.00 | 0.00 | 100 | 1009.4 |
| 20260510060245 | 74 | 22 | 3.0 | 4.0 | 0.00 | 0.00 | 0.00 | 100 | 1009.4 |
| 20260510055519 | 75 | 323 | 0.0 | 1.0 | 0.00 | 0.00 | 0.00 | 100 | 1009.4 |
| 20260510054956 | 76 | 323 | 0.0 | 1.0 | 0.00 | 0.00 | 0.00 | 100 | 1009.4 |
| 20260510054651 | 75 | 329 | 0.0 | 0.0 | 0.00 | 0.00 | 0.00 | 100 | 1009.4 |
| 20260510053914 | 75 | 329 | 0.0 | 0.0 | 0.00 | 0.00 | 0.00 | 100 | 1009.4 |
| 20260510053412 | 76 | 329 | 0.0 | 2.0 | 0.00 | 0.00 | 0.00 | 100 | 1009.4 |
| 20260510052853 | 77 | 329 | 0.0 | 4.0 | 0.00 | 0.00 | 0.00 | 100 | 1009.4 |
| 20260510052349 | 78 | 329 | 1.0 | 6.0 | 0.00 | 0.00 | 0.00 | 100 | 1009.4 |
| 20260510052111 | 78 | 9 | 4.0 | 6.0 | 0.00 | 0.00 | 0.00 | 100 | 1009.4 |
| 20260510051343 | 78 | 11 | 5.0 | 6.0 | 0.00 | 0.00 | 0.00 | 100 | 1009.4 |
| 20260510050841 | 80 | 298 | 0.0 | 4.0 | 0.00 | 0.00 | 0.00 | 100 | 1009.4 |
| 20260510050552 | 80 | 298 | 0.0 | 6.0 | 0.00 | 0.00 | 0.00 | 100 | 1009.4 |
| 20260510050046 | 81 | 299 | 2.0 | 8.0 | 0.00 | 0.00 | 0.00 | 100 | 1009.4 |
| 20260510045324 | 83 | 272 | 6.0 | 9.0 | 0.00 | 0.00 | 0.00 | 100 | 1009.4 |
| 20260510045048 | 83 | 267 | 6.0 | 10.0 | 0.00 | 0.00 | 0.00 | 100 | 1009.4 |
| 20260510044323 | 83 | 265 | 7.0 | 10.0 | 0.00 | 0.00 | 0.00 | 100 | 1009.4 |
| 20260510043822 | 83 | 291 | 4.0 | 9.0 | 0.00 | 0.00 | 0.00 | 100 | 1009.4 |
| 20260510043321 | 85 | 278 | 6.0 | 10.0 | 0.00 | 0.00 | 0.00 | 100 | 1009.4 |
| 20260510043040 | 85 | 268 | 7.0 | 10.0 | 0.00 | 0.00 | 0.00 | 100 | 1009.4 |
| 20260510042321 | 86 | 270 | 6.0 | 11.0 | 0.00 | 0.00 | 0.00 | 100 | 1009.4 |
| 20260510041821 | 86 | 250 | 7.0 | 12.0 | 0.00 | 0.00 | 0.00 | 100 | 1009.4 |
| 20260510041319 | 86 | 268 | 8.0 | 12.0 | 0.00 | 0.00 | 0.00 | 100 | 1009.4 |
| 20260510040818 | 85 | 254 | 8.0 | 11.0 | 0.00 | 0.00 | 0.00 | 100 | 1009.4 |
| 20260510040318 | 86 | 258 | 9.0 | 11.0 | 0.00 | 0.00 | 0.00 | 100 | 1009.4 |
| 20260510035817 | 86 | 237 | 6.0 | 9.0 | 0.00 | 0.00 | 0.00 | 100 | 1009.4 |
| 20260510035318 | 86 | 253 | 7.0 | 9.0 | 0.00 | 0.00 | 0.00 | 100 | 1009.4 |
| 20260510034814 | 86 | 261 | 6.0 | 9.0 | 0.00 | 0.00 | 0.00 | 100 | 1009.4 |
| 20260510034314 | 87 | 260 | 6.0 | 9.0 | 0.00 | 0.00 | 0.00 | 100 | 1009.4 |
| 20260510033813 | 87 | 237 | 7.0 | 11.0 | 0.00 | 0.00 | 0.00 | 100 | 1009.4 |
| 20260510033310 | 87 | 255 | 7.0 | 12.0 | 0.00 | 0.00 | 0.00 | 100 | 1009.4 |
| 20260510032311 | 87 | 253 | 8.0 | 13.0 | 0.00 | 0.00 | 0.00 | 100 | 1009.4 |
| 20260510031809 | 88 | 257 | 10.0 | 13.0 | 0.00 | 0.00 | 0.00 | 100 | 1009.4 |
| 20260510031308 | 88 | 248 | 9.0 | 12.0 | 0.00 | 0.00 | 0.00 | 100 | 1009.4 |
| 20260510031030 | 88 | 246 | 8.0 | 11.0 | 0.00 | 0.00 | 0.00 | 100 | 1009.4 |
| 20260510030307 | 88 | 265 | 8.0 | 14.0 | 0.00 | 0.00 | 0.00 | 100 | 1009.4 |
| 20260510030025 | 88 | 271 | 10.0 | 14.0 | 0.00 | 0.00 | 0.00 | 100 | 1009.4 |
| 20260510025306 | 88 | 258 | 8.0 | 15.0 | 0.00 | 0.00 | 0.00 | 100 | 1009.4 |
| 20260510024805 | 89 | 264 | 9.0 | 16.0 | 0.00 | 0.00 | 0.00 | 100 | 1009.4 |
| 20260510024304 | 89 | 258 | 8.0 | 16.0 | 0.00 | 0.00 | 0.00 | 100 | 1009.4 |
| 20260510023803 | 89 | 243 | 9.0 | 15.0 | 0.00 | 0.00 | 0.00 | 100 | 1009.4 |
| 20260510023304 | 89 | 247 | 6.0 | 14.0 | 0.00 | 0.00 | 0.00 | 100 | 1009.4 |
| 20260510022803 | 89 | 251 | 9.0 | 14.0 | 0.00 | 0.00 | 0.00 | 100 | 1009.4 |
| 20260510022306 | 89 | 268 | 8.0 | 18.0 | 0.00 | 0.00 | 0.00 | 100 | 1009.4 |
| 20260510022024 | 90 | 255 | 12.0 | 18.0 | 0.00 | 0.00 | 0.00 | 100 | 1009.4 |
| 20260510021301 | 90 | 254 | 11.0 | 18.0 | 0.00 | 0.00 | 0.00 | 100 | 1009.4 |
| 20260510020800 | 90 | 257 | 11.0 | 17.0 | 0.00 | 0.00 | 0.00 | 100 | 1009.4 |
| 20260510020300 | 91 | 241 | 14.0 | 17.0 | 0.00 | 0.00 | 0.00 | 100 | 1009.4 |
| 20260510015759 | 91 | 239 | 11.0 | 16.0 | 0.00 | 0.00 | 0.00 | 100 | 1009.4 |
| 20260510015258 | 91 | 250 | 11.0 | 16.0 | 0.00 | 0.00 | 0.00 | 100 | 1009.4 |
| 20260510015024 | 92 | 261 | 11.0 | 18.0 | 0.00 | 0.00 | 0.00 | 100 | 1009.4 |
| 20260510014257 | 92 | 230 | 13.0 | 18.0 | 0.00 | 0.00 | 0.00 | 100 | 1009.4 |
| 20260510013757 | 92 | 240 | 10.0 | 20.0 | 0.00 | 0.00 | 0.00 | 100 | 1009.4 |
| 20260510013257 | 92 | 255 | 12.0 | 20.0 | 0.00 | 0.00 | 0.00 | 100 | 1009.4 |
| 20260510012756 | 92 | 241 | 13.0 | 18.0 | 0.00 | 0.00 | 0.00 | 100 | 1009.4 |
| 20260510012255 | 93 | 239 | 10.0 | 17.0 | 0.00 | 0.00 | 0.00 | 100 | 1009.4 |
| 20260510011754 | 92 | 258 | 11.0 | 20.0 | 0.00 | 0.00 | 0.00 | 100 | 1009.4 |
| 20260510011254 | 92 | 146 | 10.0 | 20.0 | 0.00 | 0.00 | 0.00 | 100 | 1009.4 |
| 20260510010753 | 93 | 244 | 11.0 | 20.0 | 0.00 | 0.00 | 0.00 | 100 | 1009.4 |
| 20260510010252 | 92 | 251 | 16.0 | 20.0 | 0.00 | 0.00 | 0.00 | 100 | 1009.4 |
| 20260510005753 | 94 | 262 | 13.0 | 19.0 | 0.00 | 0.00 | 0.00 | 100 | 1009.4 |
| 20260510005252 | 94 | 257 | 11.0 | 18.0 | 0.00 | 0.00 | 0.00 | 100 | 1009.4 |
| 20260510004750 | 94 | 251 | 12.0 | 17.0 | 0.00 | 0.00 | 0.00 | 100 | 1009.4 |
| 20260510004251 | 93 | 239 | 8.0 | 17.0 | 0.00 | 0.00 | 0.00 | 100 | 1009.4 |
| 20260510003750 | 93 | 289 | 11.0 | 26.0 | 0.00 | 0.00 | 0.00 | 100 | 1009.4 |
| 20260510003249 | 94 | 25 | 18.0 | 26.0 | 0.00 | 0.00 | 0.00 | 100 | 1009.4 |
| 20260510002749 | 94 | 172 | 8.0 | 19.0 | 0.00 | 0.00 | 0.00 | 100 | 1009.4 |
| 20260510002248 | 94 | 253 | 8.0 | 20.0 | 0.00 | 0.00 | 0.00 | 100 | 1009.4 |
| 20260510001747 | 94 | 174 | 13.0 | 20.0 | 0.00 | 0.00 | 0.00 | 100 | 1009.4 |
| 20260510001512 | 94 | 257 | 12.0 | 20.0 | 0.00 | 0.00 | 0.00 | 100 | 1009.4 |
| 20260510000747 | 94 | 236 | 11.0 | 20.0 | 0.00 | 0.00 | 0.00 | 100 | 1009.4 |
| 20260510000246 | 94 | 45 | 12.0 | 18.0 | 0.00 | 0.00 | 0.00 | 100 | 1009.4 |
| 20260509235745 | 94 | 234 | 14.0 | 26.0 | 0.00 | 0.00 | 0.00 | 100 | 1009.4 |
| 20260509235245 | 88 | 281 | 15.0 | 26.0 | 0.00 | 0.00 | 0.00 | 100 | 1009.4 |
| 20260509234742 | 90 | 230 | 17.0 | 22.0 | 0.00 | 0.00 | 0.00 | 100 | 1009.4 |
| 20260509234507 | 91 | 236 | 11.0 | 21.0 | 0.00 | 0.00 | 0.00 | 100 | 1009.4 |
| 20260509233740 | 91 | 261 | 6.0 | 21.0 | 0.00 | 0.00 | 0.00 | 100 | 1009.4 |
| 20260509233240 | 92 | 261 | 13.0 | 21.0 | 0.00 | 0.00 | 0.00 | 100 | 1009.4 |
| 20260509232739 | 92 | 300 | 9.0 | 22.0 | 0.00 | 0.00 | 0.00 | 100 | 1009.4 |
| 20260509232459 | 93 | 251 | 15.0 | 22.0 | 0.00 | 0.00 | 0.00 | 100 | 1009.4 |
| 20260509231739 | 93 | 234 | 11.0 | 17.0 | 0.00 | 0.00 | 0.00 | 100 | 1009.4 |
| 20260509231456 | 92 | 258 | 6.0 | 21.0 | 0.00 | 0.00 | 0.00 | 100 | 1009.4 |
| 20260509230738 | 93 | 234 | 10.0 | 21.0 | 0.00 | 0.00 | 0.00 | 100 | 1009.4 |
| 20260509230459 | 94 | 248 | 5.0 | 19.0 | 0.00 | 0.00 | 0.00 | 100 | 1009.4 |
| 20260509225736 | 94 | 272 | 10.0 | 19.0 | 0.00 | 0.00 | 0.00 | 100 | 1009.4 |
| 20260509225235 | 93 | 322 | 8.0 | 18.0 | 0.00 | 0.00 | 0.00 | 100 | 1009.4 |
| 20260509224735 | 94 | 285 | 13.0 | 18.0 | 0.00 | 0.00 | 0.00 | 100 | 1009.4 |
| 20260509224234 | 94 | 251 | 10.0 | 17.0 | 0.00 | 0.00 | 0.00 | 100 | 1009.4 |
| 20260509223734 | 95 | 246 | 12.0 | 17.0 | 0.00 | 0.00 | 0.00 | 100 | 1009.4 |
| 20260509223458 | 93 | 9 | 8.0 | 15.0 | 0.00 | 0.00 | 0.00 | 100 | 1009.4 |
| 20260509222956 | 94 | 115 | 11.0 | 17.0 | 0.00 | 0.00 | 0.00 | 100 | 1009.4 |
| 20260509221731 | 93 | 247 | 8.0 | 15.0 | 0.00 | 0.00 | 0.00 | 100 | 1009.4 |
| 20260509221231 | 94 | 286 | 11.0 | 15.0 | 0.00 | 0.00 | 0.00 | 100 | 1009.4 |
| 20260509220730 | 94 | 285 | 11.0 | 20.0 | 0.00 | 0.00 | 0.00 | 100 | 1009.4 |
| 20260509220230 | 94 | 244 | 14.0 | 20.0 | 0.00 | 0.00 | 0.00 | 100 | 1009.4 |
| 20260509215729 | 88 | 285 | 8.0 | 15.0 | 0.00 | 0.00 | 0.00 | 100 | 1009.4 |
| 20260509215228 | 90 | 232 | 10.0 | 15.0 | 0.00 | 0.00 | 0.00 | 100 | 1009.4 |
| 20260509214953 | 93 | 230 | 11.0 | 15.0 | 0.00 | 0.00 | 0.00 | 100 | 1009.4 |
| 20260509214227 | 92 | 267 | 8.0 | 15.0 | 0.00 | 0.00 | 0.00 | 100 | 1009.4 |
| 20260509213950 | 92 | 310 | 10.0 | 16.0 | 0.00 | 0.00 | 0.00 | 100 | 1009.4 |
| 20260509213226 | 94 | 265 | 10.0 | 16.0 | 0.00 | 0.00 | 0.00 | 100 | 1009.4 |
| 20260509212726 | 94 | 244 | 11.0 | 21.0 | 0.00 | 0.00 | 0.00 | 100 | 1009.4 |
| 20260509212225 | 92 | 236 | 14.0 | 21.0 | 0.00 | 0.00 | 0.00 | 100 | 1009.4 |
| 20260509211724 | 88 | 258 | 9.0 | 16.0 | 0.00 | 0.00 | 0.00 | 100 | 1009.4 |
| 20260509211223 | 90 | 4 | 11.0 | 19.0 | 0.00 | 0.00 | 0.00 | 100 | 1009.4 |
| 20260509210724 | 89 | 286 | 8.0 | 19.0 | 0.00 | 0.00 | 0.00 | 100 | 1009.4 |
| 20260509210223 | 89 | 251 | 12.0 | 18.0 | 0.00 | 0.00 | 0.00 | 100 | 1009.4 |
| 20260509205722 | 93 | 284 | 5.0 | 15.0 | 0.00 | 0.00 | 0.00 | 100 | 1009.4 |
| 20260509205221 | 94 | 244 | 8.0 | 13.0 | 0.00 | 0.00 | 0.00 | 100 | 1009.4 |
| 20260509204721 | 93 | 230 | 6.0 | 14.0 | 0.00 | 0.00 | 0.00 | 100 | 1009.4 |
| 20260509204220 | 93 | 251 | 11.0 | 15.0 | 0.00 | 0.00 | 0.00 | 100 | 1009.4 |
| 20260509203719 | 93 | 258 | 7.0 | 15.0 | 0.00 | 0.00 | 0.00 | 100 | 1009.4 |
| 20260509203218 | 92 | 264 | 6.0 | 13.0 | 0.00 | 0.00 | 0.00 | 100 | 1009.4 |
| 20260509202718 | 92 | 201 | 6.0 | 15.0 | 0.00 | 0.00 | 0.00 | 100 | 1009.4 |
| 20260509202218 | 85 | 279 | 10.0 | 16.0 | 0.00 | 0.00 | 0.00 | 100 | 1009.4 |
| 20260509201717 | 87 | 234 | 7.0 | 16.0 | 0.00 | 0.00 | 0.00 | 100 | 1009.4 |
| 20260509201217 | 89 | 303 | 3.0 | 15.0 | 0.00 | 0.00 | 0.00 | 100 | 1009.4 |
| 20260509200933 | 90 | 281 | 6.0 | 15.0 | 0.00 | 0.00 | 0.00 | 100 | 1009.4 |
| 20260509200215 | 89 | 232 | 9.0 | 15.0 | 0.00 | 0.00 | 0.00 | 100 | 1009.4 |
| 20260509195714 | 87 | 270 | 9.0 | 13.0 | 0.00 | 0.00 | 0.00 | 100 | 1009.4 |
| 20260509195214 | 88 | 275 | 1.0 | 12.0 | 0.00 | 0.00 | 0.00 | 100 | 1009.4 |
| 20260509194713 | 88 | 292 | 7.0 | 13.0 | 0.00 | 0.00 | 0.00 | 100 | 1009.4 |
| 20260509194212 | 89 | 258 | 8.0 | 13.0 | 0.00 | 0.00 | 0.00 | 100 | 1009.4 |
| 20260509193712 | 92 | 229 | 2.0 | 10.0 | 0.00 | 0.00 | 0.00 | 100 | 1009.4 |
| 20260509192711 | 93 | 253 | 10.0 | 13.0 | 0.00 | 0.00 | 0.00 | 100 | 1009.4 |
| 20260509192210 | 90 | 127 | 0.0 | 12.0 | 0.00 | 0.00 | 0.00 | 100 | 1009.4 |
| 20260509191708 | 92 | 323 | 5.0 | 11.0 | 0.00 | 0.00 | 0.00 | 100 | 1009.4 |
| 20260509191207 | 95 | 250 | 7.0 | 11.0 | 0.00 | 0.00 | 0.00 | 100 | 1009.4 |
| 20260509190706 | 95 | 268 | 5.0 | 10.0 | 0.00 | 0.00 | 0.00 | 100 | 1009.4 |
| 20260509190432 | 97 | 202 | 8.0 | 12.0 | 0.00 | 0.00 | 0.00 | 100 | 1009.4 |
| 20260509185705 | 94 | 292 | 0.0 | 12.0 | 0.00 | 0.00 | 0.00 | 100 | 1009.4 |
| 20260509185204 | 95 | 272 | 7.0 | 12.0 | 0.00 | 0.00 | 0.00 | 100 | 1009.4 |
| 20260509184935 | 94 | 306 | 4.0 | 12.0 | 0.00 | 0.00 | 0.00 | 100 | 1009.4 |
| 20260509184203 | 96 | 253 | 4.0 | 12.0 | 0.00 | 0.00 | 0.00 | 100 | 1009.4 |
| 20260509183702 | 95 | 234 | 6.0 | 12.0 | 0.00 | 0.00 | 0.00 | 100 | 1009.4 |
| 20260509183203 | 95 | 205 | 2.0 | 9.0 | 0.00 | 0.00 | 0.00 | 100 | 1009.4 |
| 20260509182702 | 95 | 239 | 5.0 | 9.0 | 0.00 | 0.00 | 0.00 | 100 | 1009.4 |
| 20260509182201 | 94 | 222 | 5.0 | 9.0 | 0.00 | 0.00 | 0.00 | 100 | 1009.4 |
| 20260509181701 | 94 | 239 | 2.0 | 9.0 | 0.00 | 0.00 | 0.00 | 100 | 1009.4 |
| 20260509180919 | 94 | 239 | 6.0 | 9.0 | 0.00 | 0.00 | 0.00 | 100 | 1009.4 |
| 20260509180159 | 93 | 246 | 6.0 | 8.0 | 0.00 | 0.00 | 0.00 | 100 | 1009.4 |
| 20260509175658 | 94 | 274 | 5.0 | 9.0 | 0.00 | 0.00 | 0.00 | 100 | 1009.4 |
| 20260509175425 | 93 | 175 | 3.0 | 9.0 | 0.00 | 0.00 | 0.00 | 100 | 1009.4 |
| 20260509174655 | 92 | 236 | 6.0 | 9.0 | 0.00 | 0.00 | 0.00 | 100 | 1009.4 |
| 20260509174154 | 92 | 264 | 4.0 | 11.0 | 0.00 | 0.00 | 0.00 | 100 | 1009.4 |
| 20260509173653 | 92 | 253 | 4.0 | 11.0 | 0.00 | 0.00 | 0.00 | 100 | 1009.4 |
| 20260509173153 | 92 | 292 | 5.0 | 10.0 | 0.00 | 0.00 | 0.00 | 100 | 1009.4 |
| 20260509172652 | 90 | 104 | 2.0 | 3.0 | 0.00 | 0.00 | 0.00 | 100 | 1009.4 |
| 20260509172137 | 89 | 323 | 0.0 | 6.0 | 0.00 | 0.00 | 0.00 | 100 | 1009.4 |
| 20260509171636 | 89 | 222 | 1.0 | 7.0 | 0.00 | 0.00 | 0.00 | 100 | 1009.4 |
| 20260509171136 | 88 | 232 | 0.0 | 9.0 | 0.00 | 0.00 | 0.00 | 100 | 1009.4 |
| 20260509170623 | 89 | 216 | 6.0 | 10.0 | 0.00 | 0.00 | 0.00 | 100 | 1009.4 |
| 20260509170123 | 88 | 319 | 5.0 | 10.0 | 0.00 | 0.00 | 0.00 | 100 | 1009.4 |
| 20260509165622 | 89 | 264 | 3.0 | 7.0 | 0.00 | 0.00 | 0.00 | 100 | 1009.4 |
| 20260509165121 | 90 | 285 | 3.0 | 6.0 | 0.00 | 0.00 | 0.00 | 100 | 1009.4 |
| 20260509164112 | 87 | 194 | 4.0 | 9.0 | 0.00 | 0.00 | 0.00 | 100 | 1009.4 |
| 20260509163611 | 87 | 258 | 1.0 | 9.0 | 0.00 | 0.00 | 0.00 | 100 | 1009.4 |
| 20260509163111 | 87 | 262 | 5.0 | 8.0 | 0.00 | 0.00 | 0.00 | 100 | 1009.4 |
| 20260509162833 | 87 | 230 | 4.0 | 8.0 | 0.00 | 0.00 | 0.00 | 100 | 1009.4 |
| 20260509162111 | 86 | 257 | 3.0 | 9.0 | 0.00 | 0.00 | 0.00 | 100 | 1009.4 |
| 20260509161609 | 85 | 253 | 3.0 | 9.0 | 0.00 | 0.00 | 0.00 | 100 | 1009.4 |
| 20260509161333 | 85 | 216 | 4.0 | 9.0 | 0.00 | 0.00 | 0.00 | 100 | 1009.4 |
| 20260509160826 | 85 | 225 | 3.0 | 9.0 | 0.00 | 0.00 | 0.00 | 100 | 1009.4 |